Weather Roundup
Issued by NWS Chicago, IL

Home | Current Version | Previous Version | Graphics & Text | Print | Product List | Glossary On
Versions: 1 2 3 4 5 6 7 8 9 10 11 12 13 14 15 16 17 18 19 20 21 22 23 24 25 26 27 28 29 30 31 32 33 34 35 36 37 38 39 40 41 42 43 44 45 46 47 48 49 50
000
NZUS59 KLOT 300006
HRRLOT

CHICAGO AREA WEATHER ROUNDUP
NATIONAL WEATHER SERVICE CHICAGO/ROMEOVILLE IL
700 PM CDT FRI AUG 29 2014

NOTE: "FAIR" INDICATES FEW OR NO CLOUDS BELOW 12,000 FEET WITH NO
SIGNIFICANT WEATHER AND/OR OBSTRUCTIONS TO VISIBILITY.

* THESE STATIONS ARE NOT UNDER NWS QUALITY CONTROL. THEY ALSO MAY NOT
  REPORT WEATHER SUCH AS PRECIPITATION OR FOG.

ILZ005-006-012>014-019>023-300100-
NORTHEAST ILLINOIS

CITY           SKY/WX    TMP DP  RH WIND       PRES   REMARKS
OHARE          MOCLDY    82  70  66 S14       29.88S HX  86
6HR MIN TEMP:  82; 6HR MAX TEMP:  86;

MIDWAY         MOCLDY    83  73  72 SE10G21   29.89S HX  89
6HR MIN TEMP:  83; 6HR MAX TEMP:  88;

AURORA         PTCLDY    75  66  73 SE3       29.88F
6HR MIN TEMP:  75; 6HR MAX TEMP:  86; 6HR PCP: TRACE;

LANSING*         N/A    N/A N/A N/A MISG        N/A
JOLIET*        PTCLDY    78  67  68 SE7       29.89S HX  80
WAUKEGAN       PTCLDY    76  70  82 SE13G23   29.87S
6HR MIN TEMP:  76; 6HR MAX TEMP:  84;

DUPAGE AIRPORT PTCLDY    80  73  79 S8        29.87F HAZE    HX  84
6HR MIN TEMP:  80; 6HR MAX TEMP:  87; 6HR PCP: TRACE;

WHEELING       PTCLDY    82  72  71 SE10      29.89S HX  87
6HR MIN TEMP:  82; 6HR MAX TEMP:  87;

KANKAKEE*      CLEAR     77  72  84 E8        29.90F
MORRIS*        PTCLDY    80  75  86 SE7       29.88S HAZE    HX  84
LEWIS AIRPORT* PTCLDY    78  68  70 SE8       29.89R HX  80
NORTHERLY IS     N/A     77  72  84 SE12        N/A
$$

WIZ051-052-058>065-066-070>072-300100-
SOUTHEAST WISCONSIN

CITY           SKY/WX    TMP DP  RH WIND       PRES   REMARKS
MILWAUKEE      PTCLDY    77  70  79 S14       29.86F
6HR MIN TEMP:  76; 6HR MAX TEMP:  82;

KENOSHA*       CLEAR     78  70  76 S16       29.87F HX  80
RACINE*        PTCLDY    75  71  87 S13G22    29.89S
BURLINGTON     CLEAR     77  71  82 S3        29.86S
WAUKESHA       MOCLDY    77  72  83 SE8       29.87S
WEST BEND      MOCLDY    77  70  78 SE6       29.85S
$$

INZ001>003-010>013-019-020-300100-
NORTHWEST INDIANA

CITY           SKY/WX    TMP DP  RH WIND       PRES   REMARKS
GARY*          MOCLDY    79  66  65 SE13      29.91S HX  81
MICHIGAN CITY* NOT AVBL
RENSSELAER*    NOT AVBL
VALPARAISO     MOCLDY    73  73 100 E5        29.93F
$$

LMZ740>746-300100-
SOUTHERN LAKE MICHIGAN

STATION/POSITION TIME  SKY/WX   TEMP WIND        PRES    VSBY
                                AIR  DIR/SP/G
                 (UTC)          (F)  (DEG/KT/KT) (MB)    (MI)
HARRISON CRIB    0000            76  140/ 20/ 23   N/A
BURNHAM HARBOR   0000            76  140/  7/ 13   N/A
CALUMET HARBOR   0000            80  140/ 10/ 14 1011.2F
BURNS HARBOR     NOT AVBL
MICHIGAN CITY    0000            76  110/  7/  9   N/A
$$

ABBREVIATIONS USED IN REMARKS
   TC - TEMPERATURE IN CELSIUS
  WCI - WIND CHILL INDEX
   HX - HEAT INDEX
  VSB - VISIBILITY
$$


USA.gov is the U.S. government's official web portal to all federal, state and local government web resources and services.